SCP
0 0 0 0 0 0 0 0 0 0 0 0 0 0 0 0 0 0 0 0 0 0 0 0 0 0 0 0 0 0 0 0 0 0 0 0 0 0 0 0 0 0 0
0 0 0 0 0 0 0 0 0 0 0 0 0 0 0 0 0 0 0 0 0 0 0 0 0 0 0 0 0 0 0 0 0 0 0 0 0 0 0 0 0 0 0
0 0 0 0 0 0 0 0 0 0 0 0 0 0 0 0 0 0 0 0 0 0 0 0 0 0 0 0 0 0 0 0 0 0 0 0 0 0 0 0 0 0 0
0 0 0 0 0 0 0 0 0 0 0 0 0 0 0 0 0 0 0 0 0 0 0 0 0 0 0 0 0 0 0 0 0 0 0 0 0 0 0 0 0 0 0
0 0 0 0 0 0 0 0 0 0 0 0 0 0 0 0 0 0 0 0 0 0 0 0 0 0 0 0 0 0 0 0 0 0 0 0 0 0 0 0 0 0 0
0 0 0 0 0 0 0 0 0 0 0 0 0 0 0 0 0 0 0 0 0 0 0 0 0 0 0 0 0 0 0 0 0 0 0 0 0 0 0 0 0 0 0
0 0 0 0 0 0 0 0 0 0 0 0 0 0 0 0 0 0 0 0 0 0 0 0 0 0 0 0 0 0 0 0 0 0 0 0 0 0 0 0 0 0 0
0 0 0 0 0 0 0 0 0 0 0 0 0 0 0 0 0 0 0 0 0 0 0 0 0 0 0 0 0 0 0 0 0 0 0 0 0 0 0 0 0 0 0
0 0 0 0 0 0 0 0 0 0 0 0 0 0 0 0 0 0 0 0 0 0 0 0 0 0 0 0 0 0 0 0 0 0 0 0 0 0 0 0 0 0 0
0 0 0 0 0 0 0 0 0 0 0 0 0 0 0 0 0 0 0 0 0 0 0 0 0 0 0 0 0 0 0 0 0 0 0 0 0 0 0 0 0 0 0
0 0 0 0 0 0 0 0 0 0 0 0 0 0 0 0 0 0 0 0 0 0 0 0 0 0 0 0 0 0 0 0 0 0 0 0 0 0 0 0 0 0 0
0 0 0 0 0 0 0 0 0 0 0 0 0 0 0 0 0 0 0 0 0 0 0 0 0 0 0 0 0 0 0 0 0 0 0 0 0 0 0 0 0 0 0
0 0 0 0 0 0 0 0 0 0 0 0 0 0 0 0 0 0 0 0 0 0 0 0 0 0 0 0 0 0 0 0 0 0 0 0 0 0 0 0 0 0 0
0 0 0 0 0 0 0 0 0 0 0 0 0 0 0 0 0 0 0 0 0 0 0 0 0 0 0 0 0 0 0 0 0 0 0 0 0 0 0 0 0 0 0
0 0 0 0 0 0 0 0 0 0 0 0 0 0 0 0 0 0 0 0 0 0 0 0 0 0 0 0 0 0 0 0 0 0 0 0 0 0 0 0 0 0 0
0 0 0 0 0 0 0 0 0 0 0 0 0 0 0 0 0 0 0 0 0 0 0 0 0 0 0 0 0 0 0 0 0 0 0 0 0 0 0 0 0 0 0
0 0 0 0 0 0 0 0 0 0 0 0 0 0 0 0 0 0 0 0 0 0 0 0 0 0 0 0 0 0 0 0 0 0 0 0 0 0 0 0 0 0 0
0 0 0 0 0 0 0 0 0 0 0 0 0 0 0 0 0 0 0 0 0 0 0 0 0 0 0 0 0 0 0 0 0 0 0 0 0 0 0 0 0 0 0
0 0 0 0 0 0 0 0 0 0 0 0 0 0 0 0 0 0 0 0 0 0 0 0 0 0 0 0 0 0 0 0 0 0 0 0 0 0 0 0 0 0 0
0 0 0 0 0 0 0 0 0 0 0 0 0 0 0 0 0 0 0 0 0 0 0 0 0 0 0 0 0 0 0 0 0 0 0 0 0 0 0 0 0 0 0
0 0 0 0 0 0 0 0 0 0 0 0 0 0 0 0 0 0 0 0 0 0 0 0 0 0 0 0 0 0 0 0 0 0 0 0 0 0 0 0 0 0 0
0 0 0 0 0 0 0 0 0 0 0 0 0 0 0 0 0 0 0 0 0 0 0 0 0 0 0 0 0 0 0 0 0 0 0 0 0 0 0 0 0 0 0
0 0 0 0 0 0 0 0 0 0 0 0 0 0 0 0 0 0 0 0 0 0 0 0 0 0 0 0 0 0 0 0 0 0 0 0 0 0 0 0 0 0 0
0 0 0 0 0 0 0 0 0 0 0 0 0 0 0 0 0 0 0 0 0 0 0 0 0 0 0 0 0 0 0 0 0 0 0 0 0 0 0 0 0 0 0
0 0 0 0 0 0 0 0 0 0 0 0 0 0 0 0 0 0 0 0 0 0 0 0 0 0 0 0 0 0 0 0 0 0 0 0 0 0 0 0 0 0 0
0 0 0 0 0 0 0 0 0 0 0 0 0 0 0 0 0 0 0 0 0 0 0 0 0 0 0 0 0 0 0 0 0 0 0 0 0 0 0 0 0 0 0
Wind_Speed
6 8 9 9 9 10 9 10 10 10 10 11 11 10 10 10 10 11 10 10 11 11 10 10 10 9 8 8 8 8 8 8 7 8 8 8 8 8 8 8 7 6 9
7 9 10 9 9 9 9 10 10 10 10 11 11 11 11 11 11 10 10 10 10 10 10 10 9 9 8 8 8 7 7 7 6 7 7 7 8 8 9 10 9 6 10
8 9 9 9 9 9 9 10 10 10 11 11 11 11 11 11 10 10 10 10 10 10 10 10 9 9 8 8 7 7 7 6 6 5 5 4 6 9 10 9 9 9 9
9 9 9 9 9 9 10 10 10 11 11 11 11 11 10 11 10 10 10 10 10 10 10 10 9 9 9 8 7 7 6 6 6 5 4 5 5 9 10 10 9 9 9
10 10 9 9 9 9 10 11 10 10 11 11 11 10 10 10 10 9 10 9 10 10 10 10 9 9 9 8 7 6 6 6 6 6 6 6 5 9 10 10 9 9 8
9 10 8 9 9 10 10 10 10 10 10 10 10 10 10 10 10 9 10 9 9 9 9 9 9 9 9 9 8 7 6 7 6 5 6 6 5 10 11 10 10 9 8
9 9 9 10 10 10 10 10 10 10 10 10 9 10 10 10 9 9 9 9 9 9 10 9 9 10 9 9 8 7 7 7 4 5 6 6 7 11 11 11 10 8 8
8 9 9 10 10 10 10 10 10 9 9 8 8 8 9 9 8 9 9 9 9 10 9 9 10 10 9 9 9 8 9 8 7 7 6 5 10 11 11 10 9 9 8
6 7 7 8 9 10 10 9 8 8 7 7 7 6 7 7 8 9 9 9 10 9 9 9 9 9 9 9 9 9 9 9 5 4 7 5 10 11 10 10 9 9 8
5 5 5 7 8 8 7 9 8 7 6 5 4 4 5 6 7 9 9 9 9 9 9 9 8 8 8 7 7 7 7 7 5 6 4 7 11 10 9 9 9 9 8
5 4 4 5 5 6 7 8 7 7 5 4 3 3 3 2 4 5 8 8 8 8 7 7 6 6 5 4 5 5 5 3 5 5 4 9 11 10 10 9 9 9 9
4 4 4 4 4 4 4 5 3 4 4 3 2 2 2 3 4 6 7 7 7 6 5 4 4 3 2 1 2 3 2 4 5 5 6 12 11 11 10 10 9 9 9
5 4 4 4 4 5 3 3 2 2 1 2 2 3 2 3 3 4 3 3 3 3 1 2 1 1 1 2 2 3 4 4 4 5 6 12 11 11 10 10 10 9 9
5 4 4 4 4 5 4 3 2 1 1 2 2 3 3 2 2 3 2 2 2 1 2 2 2 3 3 4 4 4 5 4 4 4 5 11 11 11 11 11 10 10 9
5 4 5 4 5 5 4 2 3 2 2 2 2 2 3 2 2 2 3 2 2 2 2 2 3 4 5 5 5 6 5 5 5 5 4 9 10 11 11 10 9 9 10
5 4 5 4 5 5 3 2 3 3 3 3 2 2 4 3 3 2 3 3 2 2 2 3 4 4 4 4 5 5 5 4 4 4 4 5 9 10 10 10 10 9 10
5 6 5 4 5 5 4 4 3 3 3 3 2 3 3 3 3 3 3 3 2 2 4 3 4 3 4 4 5 5 4 4 4 3 3 3 4 8 9 11 11 11 11
5 6 5 4 5 5 4 4 2 3 3 2 2 2 3 3 5 4 3 2 3 3 3 3 3 3 3 3 3 3 3 3 4 3 3 3 3 4 6 10 11 12 11
5 6 5 4 5 5 4 3 3 3 2 2 2 3 3 4 4 4 2 2 3 3 2 3 3 3 3 2 2 3 3 3 3 4 4 4 4 4 3 6 10 11 12
4 6 6 4 4 5 3 3 2 2 2 2 2 2 3 3 4 3 2 3 3 3 3 3 3 2 2 1 2 3 2 2 3 3 4 4 4 4 4 4 4 6 11
3 4 6 4 4 4 2 2 2 1 2 2 2 2 2 3 3 3 3 3 3 3 3 3 2 2 1 1 2 2 2 2 3 2 2 3 4 3 4 4 3 3 4
3 3 5 4 5 4 2 1 1 2 1 2 2 2 3 3 3 2 3 3 3 2 3 3 2 2 1 1 1 1 1 2 2 2 2 2 3 3 4 5 4 4 4
4 3 4 4 5 4 3 2 2 2 1 2 2 2 2 3 3 3 2 2 3 3 2 2 2 1 1 1 1 1 1 1 1 1 2 2 2 2 2 3 5 5 5
4 3 4 4 4 4 4 2 1 2 1 1 2 2 1 2 2 2 2 2 2 3 3 2 2 1 1 1 1 1 1 2 2 1 1 2 3 3 3 4 4 5 5
4 3 3 4 4 4 3 2 1 2 1 1 2 2 2 2 2 1 2 2 2 2 2 2 2 2 1 1 1 1 2 1 1 2 1 1 1 1 2 3 3 3 4
4 3 3 3 3 3 2 2 2 2 2 2 2 2 2 2 1 1 2 1 2 2 2 2 2 2 1 2 2 2 1 1 1 1 1 0 1 0 2 2 2 2 3
Wind_Direction
83 86 69 60 56 55 58 59 58 60 63 64 65 65 67 67 67 69 71 73 71 72 71 71 70 70 69 66 65 65 67 72 74 75 78 77 77 78 74 70 72 70 72
93 95 77 62 59 59 61 62 62 62 63 66 66 65 67 68 69 74 75 74 73 72 72 71 71 71 73 73 72 70 69 69 74 78 78 75 76 78 74 71 70 73 71
95 95 82 66 63 62 64 66 66 67 65 67 67 66 66 69 72 74 77 75 73 71 69 68 67 70 75 77 73 70 65 60 62 70 70 81 81 78 77 76 75 74 71
90 87 80 74 70 69 71 71 70 69 68 67 67 66 65 70 75 75 77 76 73 70 69 67 65 70 72 73 71 68 60 49 45 54 60 70 73 78 76 75 73 72 70
89 89 86 80 78 75 74 73 73 70 70 70 68 68 67 69 73 77 79 78 76 74 72 69 66 67 69 70 67 61 50 40 42 56 63 65 64 77 75 72 69 70 69
99 100 97 90 86 84 80 77 75 72 71 69 69 67 67 69 72 75 77 78 79 79 79 74 69 68 68 64 59 50 42 36 39 59 68 69 69 77 74 70 68 67 66
104 107 108 106 99 93 86 82 78 75 71 69 69 68 68 70 74 76 75 74 77 77 78 79 75 71 67 60 52 45 40 35 54 69 70 69 72 77 72 67 66 66 66
109 113 121 122 113 104 94 88 86 80 75 72 72 72 72 74 78 82 79 77 79 78 78 79 77 73 68 60 53 48 41 34 56 70 73 68 78 77 72 66 62 62 63
108 119 132 141 129 119 109 101 98 94 85 81 80 81 83 82 83 88 84 81 82 82 81 80 78 76 72 64 56 48 42 38 43 56 72 68 77 74 70 66 62 56 55
110 114 123 135 140 138 130 124 123 121 114 108 104 100 100 99 93 93 90 87 86 87 86 85 84 81 78 70 60 50 44 41 52 60 63 74 74 71 66 62 60 54 50
99 116 118 120 129 135 138 138 149 150 152 149 160 165 164 144 114 99 95 98 95 93 95 95 95 95 90 76 65 50 38 56 62 63 60 74 74 69 63 60 59 54 50
112 118 116 119 119 112 103 129 151 147 155 176 159 151 162 109 92 101 108 110 113 110 112 121 124 128 132 109 80 56 48 59 60 64 64 70 69 69 64 60 57 54 50
116 103 108 105 100 99 96 102 96 93 119 121 111 109 87 103 124 121 135 140 146 143 129 126 137 105 85 79 78 79 65 64 62 59 60 63 63 64 62 59 56 52 50
89 92 92 86 95 94 87 91 104 90 94 83 67 87 81 69 93 112 108 109 115 98 66 55 57 61 55 64 68 69 68 69 73 71 64 65 62 62 61 58 55 51 51
111 108 94 83 84 86 80 84 98 77 57 80 57 81 90 74 71 85 101 93 82 86 87 66 56 56 53 49 55 59 59 63 73 75 69 68 66 62 59 55 53 53 56
110 108 99 92 84 91 91 83 82 85 74 52 37 59 90 93 83 66 82 78 77 69 71 75 70 62 63 55 55 56 50 55 66 79 91 74 69 66 61 56 56 61 64
111 98 82 90 89 83 73 61 73 68 73 62 26 26 70 81 85 78 75 78 72 70 69 64 70 66 73 67 61 55 50 52 60 63 78 96 83 71 67 62 62 65 68
106 102 97 81 85 86 84 66 67 70 65 66 41 20 44 70 85 72 63 74 75 68 73 77 61 68 66 61 58 53 54 46 54 58 65 75 85 84 72 70 67 68 67
107 109 100 80 86 85 85 90 65 70 73 71 56 26 25 52 81 86 68 64 76 73 64 74 61 63 74 71 84 74 58 49 37 46 47 58 70 74 82 78 72 69 66
112 115 108 101 91 94 71 72 75 55 51 61 70 50 38 38 66 85 96 76 71 75 73 81 85 78 88 85 79 81 80 81 49 42 36 44 56 67 77 85 79 68 66
116 115 117 125 108 95 84 73 74 66 58 50 53 65 53 45 63 76 72 74 72 76 77 86 72 76 67 75 77 65 58 76 67 58 44 46 48 50 70 80 77 72 68
124 118 119 113 108 99 95 106 112 100 95 96 57 44 42 47 56 79 98 99 95 88 71 74 74 44 36 60 84 86 68 35 8 67 60 58 63 49 51 71 76 77 77
126 121 113 116 112 112 106 76 86 92 82 85 81 58 43 46 42 42 63 98 118 122 111 102 99 93 38 345 46 81 96 104 327 21 61 66 62 61 56 60 68 70 74
129 127 117 114 111 107 104 79 86 103 105 123 125 121 97 79 66 31 52 79 102 106 113 125 113 95 84 5 355 31 71 116 133 51 5 50 67 68 66 64 63 67 72
109 112 111 108 103 102 105 104 71 88 102 105 113 113 108 88 78 47 61 62 81 104 113 104 97 79 84 61 33 28 29 22 38 122 98 8 47 60 81 80 77 78 83
101 102 109 110 107 112 129 147 144 129 133 123 119 131 134 121 107 104 99 95 88 96 103 102 104 100 77 50 42 47 70 62 4 62 107 127 109 122 92 86 81 81 89